◎P/2003 K2 = 2008 X4の連結軌道と予報位置

 2008年12月8日と9日に撮影されたSTEREO-B(天文年鑑2009年p.255参照)の
画像上にワトソン氏によって1個の彗星が見つけられた.各地での軌道決定の
結果,メイヤーは,この彗星は,P/2003 K2 (Christensen)と同定可能であるこ
とを指摘した.
 すでに天文ガイド2009年1月号(p.144)で紹介したとおり,この彗星は,予
報軌道のとおり,回帰すれば,彗星は,2009年2月5日に地球に0.33 AUまで接
近し,1月には9等級まで明るくなる予定であった.しかし,STEREOーBに写っ
ていた彗星の位置は,予報軌道(NK 971)から,赤経方向に刄ソ= -52゚,赤緯
方向に刄ツ= +22゚と大きくずれ,近日点通過時刻への補正値は儺= -19.9日で
あった.なお,この彗星は,2003年出現時にSWAN画像上に写っていた彗星と同
定されており,残差表にある2003年4月の観測は,宇都宮の鈴木雅之氏の測定
による(cf. YC 2397).
 彗星は,現在,地上から観測できない位置を動いているが,年初頃より,明け
方の空に9等級で観測できるだろう.

 210P/2003 K2 = 2008 X4 (Christensen)    [Temporary numbered]
Epoch 2008 Nov. 30.0 TT = JDT 2454800.5  
T 2008 Dec. 19.96233 TT                                 Nakano
q   0.5348283            (2000.0)            P               Q
n   0.17403383     Peri.  345.76727     +0.17562797     -0.96842448
a   3.1772174      Node    93.89113     +0.91967952     +0.09727877
e   0.8316677      Incl.   10.21555     +0.35120421     +0.22954491
P   5.66 (+/- 0.03 day)
From 227 observations 2003-2008, mean residual 3".16 without weighting.
   2008 positions run off -52 deg. and +22 deg. from the prediction in
   NK 971.  The delta-T correction is -19.9 days.
   This comet is identical with a comet on SWAN images taken in 2003
   April as shown in the residual block.  Positions on SWAN images were
   measured by Masayuki Suzuki (cf. YC 2397).  
Residuals in seconds of arc (or two decimals in units of degrees)
2003/                     030528 673 (2.0-  0.2+)   030602 340  0.6-  1.4+  
030405 249(0.90+ 0.64+)Y  030528 673  0.6-  0.1+    030602 340  0.3+  0.1-  
030408 249(1.00+ 0.41+)Y  030528 673  0.1-  0.2+    030602 340 (0.4-  2.4-) 
030412 249(0.54+ 0.55-)Y  030528 340  1.7-  1.9+    030602 372  1.6-  0.7+  
030415 249(0.24+ 0.28+)Y  030528 340  1.5+  1.3+    030602 340  0.9+  1.1+  
030417 249(0.74+ 0.89+)Y  030528 340 (1.2+  2.0+)   030602 372  1.3-  0.2-  
030526 703 (4.7+  0.2+)   030528 340 (3.0+  1.5+)   030602 620  0.5-  0.2+  
030526 703 (4.6+  0.4+)   030528 340  0.1+  0.4-    030602 620  0.5-  0.4+  
030526 703 (3.2+  0.2-)   030528 340 (1.1-  2.1+)   030602 620  0.1+  0.3-  
030526 703 (5.9+  2.2-)   030528 367  0.3+  0.0     030603 H72  0.4-  0.5-  
030526 938  0.3-  1.3-    030528 367  0.7-  0.2-    030603 H72  0.7+  0.2+  
030526 938  1.0-  0.3+    030528 367  1.3+  1.0-    030603 H41  1.1-  0.4+  
030526 938  1.3+  0.2-    030528 367  0.6-  0.0     030603 H72 (3.9+  0.6+) 
030526 938  0.7-  0.0     030528 620  0.2+  0.1+    030603 H41  0.8+  0.4+  
030526 938  0.5+  0.8-    030528 620  0.4+  0.2+    030603 H72 (1.7+  2.5+) 
030526 938  0.6-  0.6+    030528 213  0.2+  0.7+    030603 H41  0.0   0.6+  
030526 938  0.3-  0.5-    030528 620  0.4-  0.1-    030603 H41  0.3-  0.9+  
030526 938  1.1+  0.5+    030528 213  0.0   0.8+    030603 H41  0.5-  1.0+  
030526 938  0.0   0.5-    030528 620  0.2-  0.1-    030603 118  0.5+  1.6-  
030526 938 (2.0+  0.7-)   030528 166  0.7+  0.4+    030603 118  1.4+  0.5-  
030526 938  0.1+  0.2-    030528 166  0.5-  0.7+    030603 118  0.4-  0.6-  
030526 938  1.7+  0.2+    030528 213  0.4-  0.6+    030605 620  1.8-  0.6+  
030526 938  0.3+  0.6+    030528 166 (2.5-  1.2+)   030606 620  0.2+  0.3+  
030526 938  0.3+  0.4+    030528 A32 (0.5-  2.5+)   030607 620  0.3-  0.4-  
030526 938  0.4-  0.0     030528 A32  0.5+  0.5-    030607 620  1.1-  0.1-  
030526 938  1.1+  0.0     030529 H41  0.9+  0.3+    030607 620  1.5-  0.7+  
030526 938  0.1-  0.4+    030529 H41  0.2+  0.1-    030608 046 (0.5+  2.1+) 
030526 938  1.3+  0.2+    030529 H41 (3.4+  7.5-)   030608 046  1.5-  0.8+  
030526 938  0.6-  0.7+    030529 750  0.1+  0.6-    030608 046  0.6+  1.4+  
030526 938  0.4+  0.4-    030529 900  0.7-  0.7+    030610 620  0.6-  0.7-  
030526 938  1.4-  0.5+    030529 900  0.6-  1.4+    030610 620  0.5-  0.1+  
030526 938  1.0+  0.2-    030529 A46 (2.3+  0.9-)   030610 620  0.5+  0.8-  
030526 938  1.0-  0.2+    030529 A46 (0.8+  2.1-)   030610 204  1.4+  0.5-  
030526 938  1.5+  1.6-    030529 A46  0.0   0.7-    030610 204 (5.1+  6.2-) 
030526 938  0.4+  0.2+    030529 A46 (0.8+  2.5-)   030615 620  0.8+  0.6-  
030526 938  0.6-  0.6+    030529 A46  1.0+  1.7-    030615 118 (5.0+  1.6-) 
030526 938  0.4-  0.2+    030529 118  0.5+  0.8+    030615 118  0.7-  1.0+  
030526 938  1.0+  0.2+    030529 A46  0.1-  1.1-    030616 118  0.6+  1.3+  
030526 938  0.1+  1.1+    030529 213  0.3-  0.7+    030616 118  0.9-  0.4+  
030527 734  0.3+  0.2+    030529 213  1.5-  0.6+    030616 118  1.1-  1.0+  
030527 750  0.8-  0.9-    030529 118  0.2-  1.3+    030617 620  0.7-  0.7-  
030527 750 (2.5-  0.5-)   030529 213 (2.8-  0.9+)   030617 620  0.5-  1.8-  
030527 734  0.3-  0.2-    030529 118  0.4+  0.0     030617 620  0.5+  0.3-  
030527 750  0.8-  0.6+    030529 A32  0.2+  1.2+    030618 620  0.7-  0.9-  
030527 333  1.0+  0.5+    030529 A32  0.2-  1.0-    030619 H41 (2.1-  1.6+) 
030527 333  0.3-  0.7+    030530 H72  0.9+  0.3-    030619 H41 (3.5-  0.5+) 
030527 333  1.1+  0.2-    030530 H72 (3.1-  0.5-)   030619 H41  0.6-  1.6+  
030527 333  0.1-  0.7+    030530 H41 (0.3+  2.0-)   030620 360  0.5+  0.4-  
030527 333  0.7+  0.2+    030530 H41  1.4-  0.4-    030620 360  1.0+  1.2-  
030527 333  1.1+  0.6-    030530 H72  1.0+  0.1-    030620 360  0.1+  1.0-  
030527 926  0.2-  0.4+    030530 673  1.5-  0.1-    030620 118 (2.5+  1.8-) 
030527 926  0.1-  0.3-    030530 673  0.6-  0.3-    030620 118 (2.1+  0.7-) 
030527 926  0.0   0.0     030530 673  1.1-  0.1-    030620 215  0.8+  1.3+  
030527 699 (2.4+  1.5-)   030530 673  0.1-  0.3-    030622 H41  1.0-  0.4+  
030527 673  0.0   0.7-    030530 921 (1.6+  2.0+)   030622 H41 (2.7-  1.0+) 
030527 699 (2.8+  0.4-)   030530 921 (1.2-  2.6+)   030622 H41  0.4-  0.0   
030527 673  0.7-  0.5-    030530 673  0.4-  0.5-    030623 H41 (0.4+  2.9-) 
030527 699 (2.2+  0.6-)   030530 673  1.2-  0.3-    030623 H41  1.4+  0.3-  
030527 333  1.3+  0.4-    030530 673  0.8-  0.2-    030623 H41  1.2+  1.4-  
030527 333 (3.6+  2.6-)   030530 673  1.3-  0.5-    030624 H41  0.3+  1.2+  
030527 673  0.1-  0.6-    030530 587 (2.0-  2.2+)   030624 H41 (2.5+  0.4+) 
030527 333 (2.6+  4.1-)   030530 587 (1.6+  3.2-)   030624 H41  1.0+  0.2-  
030527 673  0.3-  0.3-    030530 587  1.7-  0.2-    030625 H41 (1.8+  2.0+) 
030527 333  1.4+  1.2-    030530 232 (2.1+  1.5-)   030625 H41 (2.2-  1.1-) 
030527 333  1.4+  0.4-    030530 232 (1.9-  2.8+)   030628 H41  0.8+  0.4+  
030527 333  0.2-  1.3-    030530 J87 (1.6-  2.1+)   030628 H41  0.1+  0.9+  
030527 699 (2.7+  1.4-)   030530 J87  0.2-  0.2-    030628 H41 (2.0+  1.9+) 
030527 333  0.6+  0.4-    030530 J87  0.5+  0.3-    030629 H41  0.2+  1.2-  
030527 333  1.5+  0.3-    030530 J87  0.5-  0.5-    030629 H41  0.6+  0.9-  
030527 673  0.4-  0.3-    030531 H72  0.4-  0.4-    030629 H41  0.8+  0.7+  
030527 703 (0.8+  2.0-)   030531 H72  1.4+  0.3+    030702 H41 (3.8+  3.6-) 
030527 734  1.8+  0.5-    030531 H72 (1.0+  2.5+)   030702 H41 (2.3+  3.9-) 
030527 854  0.5+  0.2-    030531 H72 (4.3-  3.3+)   2008/                   
030527 734 (2.7+  0.2+)   030531 H41 (0.6-  2.4+)   081208 C50  7.6- 16.4+ Y
030527 703 (2.5+  0.2+)   030531 H41  0.1-  1.1-    081208 C50  3.1- 14.0+ Y
030527 333  1.6+  0.1-    030531 H41  0.4-  1.2-    081208 C50  4.4- 19.1- Y
030527 703 (2.7+  0.3-)   030531 H41  1.0-  0.1-    081208 C50  8.8+  9.6+ Y
030527 333  0.0   1.1-    030531 H41  0.2+  0.3-    081208 C50  5.6+ 11.2- Y
030527 333  1.8+  0.8+    030531 H41  0.6+  0.1+    081208 C50 17.0+  2.9+ Y
030527 670  0.8-  0.7+    030531 A01  0.9+  1.5-    081208 C50 14.4- 19.3- Y
030527 333 (2.0+  0.2+)   030531 A01 (7.7-  0.0 )   081208 C50  2.0-  0.9- Y
030527 333  0.8+  0.4-    030601 360  0.6-  0.6+    081208 C50 13.3- 11.1+ Y
030527 333 (2.9+  0.8-)   030601 360  0.8-  0.1+    081208 C50 (7.7+ 31.4-)Y
030527 333  1.1+  0.3+    030601 367  0.7-  0.4+    081209 C50  2.8-  0.8- Y
030527 333 (0.3+  2.9-)   030601 367  1.0-  0.7-    081209 C50(33.0-  8.7-)Y
030527 673  0.1+  0.1+    030601 360  0.9-  0.0     081209 C50  3.8+  0.1- Y
030527 703  1.1-  0.9+    030601 900 (2.1-  1.7-)   081209 C50 13.3+ 18.9+ Y
030527 670  0.6-  0.9+    030601 367  0.4-  0.3-    081209 C50  6.0+ 14.8- Y
030527 673  0.2-  0.3-    030601 367  1.2-  0.6+    081209 C50 14.9- 12.1+ Y
030527 673  0.2+  0.1-    030601 372  1.9-  1.0-    081209 C50(42.4-  3.5+)Y
030527 673  0.0   0.2+    030601 349 (2.2-  0.3+)   081209 C50(20.3+  1.5+)Y
030527 176  0.6+  0.3+    030601 900  0.4+  0.2-    081209 C50 (4.3- 28.0+)Y
030527 176  0.4+  0.2+    030601 349  1.6-  0.1+    081209 C50 13.6+  9.8- Y
030527 176  0.3+  0.2+    030601 349  1.4-  0.7-    081209 C50  2.5-  9.2- Y
030527 176  0.1+  0.1+    030602 H72  1.8+  1.0-    081209 C50  0.5-  5.0+ Y
030527 176  0.1-  0.0     030602 H72  0.9-  0.8-    081209 C50(31.1+ 21.8+)Y
030528 H41  0.7-  1.2+    030602 H72  1.0-  0.5+    081209 C50  8.8-  6.1+ Y
030528 H41  0.4-  0.0     030602 H72  1.0+  0.9+    081209 C50 (2.5+ 23.0-)Y
030528 H41  0.2-  1.1-    030602 703  0.5+  1.5+    081209 C50  1.3-  1.5- Y
030528 673  0.4+  0.2-    030602 703  1.9+  0.6+    081209 C50  8.6+  9.5- Y
030528 673  0.6-  0.3+    030602 703  0.5+  0.5+                            
030528 673  0.1-  0.4+    030602 703  1.2+  0.1-                            

